Lexington Weather

Lexington, Massachusetts, USA

40°F
3/30/2020 10:11am 
  • Lexington Conditions: Mist, Overcast
  • Temperature: 40.3°F / 4.6°CWarmer 0.4°F than last hour.
  • Dew Point: 39.6°FIncreased 0.4°Fsince last hour.
  • Relative Humidity: 97
  • Wind: Wind from ENE ENE 4 mph, 10-min avg: 3 mph, gust: 11 mph
  • Barometer: 29.97 in Steady
  • Visibility: 2 miles
  • Rain Today: 0.02 in
  •   

Regional Weather Roundup
for Boston / Norton, MA

        
000
ASUS41 KBOX 290204
RWRBOX

REGIONAL WEATHER ROUNDUP
NATIONAL WEATHER SERVICE BOSTON/NORTON MA
1000 PM EDT SAT MAR 28 2020

NOTE:  "FAIR" INDICATES FEW OR NO CLOUDS BELOW 12,000 FEET WITH NO 
SIGNIFICANT WEATHER AND/OR OBSTRUCTIONS TO VISIBILITY.

MAZALL-290300-
EASTERN MASSACHUSETTS
  
CITY           SKY/WX    TMP DP  RH WIND       PRES   REMARKS
BOSTON         LGT RAIN  44  39  82 SE5       30.21R                  
BEVERLY        CLOUDY    46  37  71 SE6       30.19S                  
LAWRENCE       LGT RAIN  48  35  60 CALM      30.21R                  
BEDFORD        LGT RAIN  45  39  79 CALM      30.18F                  
BLUE HILL        N/A     41  39  93 SE6       30.16F                  
NORWOOD        LGT RAIN  45  41  86 CALM      30.19F                  
MARSHFIELD     LGT RAIN  45  43  93 CALM      30.20S                  
PLYMOUTH       LGT RAIN  42  41  96 SE3       30.20S                  
TAUNTON        LGT RAIN  43  41  93 CALM      30.19S                  
NEW BEDFORD    LGT RAIN  42  42 100 SE7       30.18F FOG              
$$

MAZALL-290300-
CAPE COD AND THE ISLANDS
  
CITY           SKY/WX    TMP DP  RH WIND       PRES   REMARKS
FALMOUTH       DRIZZLE   43  41  93 SE6       30.20R                  
HYANNIS        LGT RAIN  45  40  82 SE3       30.19R                  
CHATHAM        RAIN      43  38  82 E6        30.22S                  
PROVINCETOWN   LGT RAIN  44  38  79 SE5       30.22R                  
NANTUCKET      LGT RAIN  44  41  89 E8        30.20R FOG              
MARTHAS VNYRD  LGT RAIN  44  41  89 SE6       30.18F FOG              
$$
 
MAZALL-290300-
CENTRAL AND WESTERN MASSACHUSETTS
  
CITY           SKY/WX    TMP DP  RH WIND       PRES   REMARKS
WORCESTER      LGT RAIN  41  39  93 E3        30.16R VSB 1/2          
FITCHBURG      LGT RAIN  44  39  82 CALM      30.19R                  
ORANGE         LGT RAIN  43  41  93 CALM      30.17R FOG              
SPRINGFIELD    LGT RAIN  41  41  99 NE6       30.14F FOG              
WESTFIELD      LGT RAIN  40  37  89 N7        30.15F FOG              
NORTH ADAMS    LGT RAIN  41  36  82 E13       30.13S                  
PITTSFIELD     LGT RAIN  39  36  89 NE6       30.10R FOG              
$$
 
RIZALL-290300-
RHODE ISLAND
  
CITY           SKY/WX    TMP DP  RH WIND       PRES   REMARKS
PROVIDENCE     LGT RAIN  43  42  97 SE5       30.19R FOG              
NEWPORT        LGT RAIN  44  41  89 E5        30.17S                  
BLOCK ISLAND   LGT RAIN  43  42  97 E12       30.15F                  
SMITHFIELD     RAIN      42  42 100 SE6       30.17F FOG              
WESTERLY       LGT RAIN  47  42  83 NE7       30.16S                  
$$
 
CTZALL-290300-
CONNECTICUT
  
CITY           SKY/WX    TMP DP  RH WIND       PRES   REMARKS
BRADLEY INTL   LGT RAIN  42  40  92 N7        30.15S FOG              
HARTFORD       LGT RAIN  44  42  93 N3        30.14F FOG              
BRIDGEPORT     LGT RAIN  45  43  93 E16       30.11S FOG              
DANBURY        RAIN      42  41  96 E7        30.09F FOG              
GROTON         LGT RAIN  44  44 100 E13G20    30.13F FOG              
NEW HAVEN      LGT RAIN  47  45  93 E12       30.11F FOG              
CHESTER        LGT RAIN  45  45 100 E8        30.11F                  
MERIDEN        RAIN      44  42  93 VRB5      30.13F FOG              
WILLIMANTIC    LGT RAIN  44  42  93 CALM      30.15F FOG              
OXFORD         LGT RAIN  42  42 100 E8        30.10F FOG              
$$

MEZ002-015-021-024-NHZ003-005-008-011-012-014-VTZ005-008-290300-
NORTHERN NEW ENGLAND
  
CITY           SKY/WX    TMP DP  RH WIND       PRES   REMARKS
PORTLAND ME    CLOUDY    43  30  60 CALM      30.21S                  
BANGOR ME      MOCLDY    40  27  59 SW5       30.20R                  
CONCORD NH     CLOUDY    47  29  49 CALM      30.18S                  
MANCHESTER NH  CLOUDY    50  32  50 S5        30.17R                  
NASHUA NH      LGT RAIN  45  41  86 CALM      30.19S                  
PORTSMOUTH NH  CLOUDY    44  34  69 SE3       30.18S                  
JAFFREY NH     LGT RAIN  43  39  86 CALM      30.16S                  
KEENE NH       LGT RAIN  43  34  70 CALM      30.18R                  
BURLINGTON VT  CLOUDY    49  24  37 SE6       30.12S                  
MT. WASHINGTON CLOUDY    30   3  31 VRB1        N/A                   
$$

NYZ052-076-290300-
EASTERN NEW YORK
  
CITY           SKY/WX    TMP DP  RH WIND       PRES   REMARKS
ALBANY         LGT RAIN  43  39  86 N3        30.13S FOG              
NEW YORK CITY  LGT RAIN  45  43  93 NE17      30.06F FOG              
$$
 
ANZALL-290300-
MARINE OBSERVATIONS
  
STATION/POSITION TIME  TEMP    WIND        PRES    VSBY  WAVE
                       AIR SEA DIR/SP/G                  HT/PER
                 (UTC) (F)     (DEG/KT/KT) (MB)    (MI)  (FT/S)
BOSTON BUOY      0150   43 43  130/  6/  6 1022.4R         2/ 9
BUZZARDS BAY     0100          110/ 11/ 12 1022.6S
NANTUCKET SOUND  0140                        N/A           1/ 3
MASS BAY-STELLWA 0104   43 42  180/ 10/ 12 1021.0R  1 7/8  2/ 3
ISLE OF SHOALS   0100   44     160/ 15/ 16 1021.9R
S OF BLOCK IS    0130      44                N/A           3/ 8
$$

......................KEY.........................
  SKY/WX - SKY CONDITION/PRESENT WEATHER
  TMP    - TEMPERATURE IN FAHRENHEIT
  DWPT   - DEWPOINT IN FAHRENHEIT
  RH     - RELATIVE HUMIDITY IN PERCENT
  WIND   - DIRECTION AND SPEED IN MPH
  PRES   - MEAN SEA LEVEL PRESSURE IN INCHES OF HG
  WCI    - WIND CHILL INDEX
  VSB    - VISIBILITY IN MILES
  HX     - HEAT INDEX
  TC     - TEMPERATURE IN CELSIUS
  VRB    - VARIABLE WIND DIRECTION
  N/A    - NOT AVAILABLE
  
      

Other recent Regional Weather Roundups

Mon Mar 30, 10:04am

Mon Mar 30, 9:04am

Mon Mar 30, 8:04am

Mon Mar 30, 7:04am

Mon Mar 30, 6:04am

Mon Mar 30, 5:04am

Mon Mar 30, 4:04am

Mon Mar 30, 3:05am

Mon Mar 30, 2:04am

Mon Mar 30, 1:04am

Mon Mar 30, 12:04am

Sun Mar 29, 11:04pm

Sun Mar 29, 10:05pm

Sun Mar 29, 9:04pm

Sun Mar 29, 8:04pm

Sun Mar 29, 7:04pm

Sun Mar 29, 6:04pm

Sun Mar 29, 5:05pm

Sun Mar 29, 4:04pm

Sun Mar 29, 3:04pm

Sun Mar 29, 2:04pm

Sun Mar 29, 1:05pm

Sun Mar 29, 12:04pm

Sun Mar 29, 11:04am

Sun Mar 29, 10:04am

Sun Mar 29, 9:04am

Sun Mar 29, 8:04am

Sun Mar 29, 7:04am

Sun Mar 29, 6:04am

Sun Mar 29, 5:04am

Sun Mar 29, 4:04am

Sun Mar 29, 3:04am

Sun Mar 29, 2:04am

Sun Mar 29, 1:04am

Sun Mar 29, 12:04am

Sat Mar 28, 11:05pm

Sat Mar 28, 9:04pm

Sat Mar 28, 8:04pm

Sat Mar 28, 7:04pm

Sat Mar 28, 6:04pm

Sat Mar 28, 5:05pm

Sat Mar 28, 4:04pm

Sat Mar 28, 3:04pm

Sat Mar 28, 2:04pm

Sat Mar 28, 1:05pm

Sat Mar 28, 12:04pm

Sat Mar 28, 11:04am

Sat Mar 28, 10:04am

Sat Mar 28, 9:04am

Sat Mar 28, 8:04am

Sat Mar 28, 7:04am

Sat Mar 28, 6:04am

Sat Mar 28, 5:04am

Sat Mar 28, 4:04am

Sat Mar 28, 3:04am

Sat Mar 28, 2:04am

Sat Mar 28, 1:04am

Sat Mar 28, 12:04am

Fri Mar 27, 11:04pm

Fri Mar 27, 10:04pm

Fri Mar 27, 9:04pm

Fri Mar 27, 8:04pm

Fri Mar 27, 7:05pm

Fri Mar 27, 6:04pm

Fri Mar 27, 5:05pm

Fri Mar 27, 4:05pm

Fri Mar 27, 3:04pm

Fri Mar 27, 2:05pm

Fri Mar 27, 1:04pm

Fri Mar 27, 12:04pm

Fri Mar 27, 11:04am

Meta data:

ID: d0884deb-bf3d-40bd-a06d-5ec798e45e7a
Link: https://api.weather.gov/products/d0884deb-bf3d-40bd-a06d-5ec798e45e7a